• In Russia
  • List of Countries
  • For 7 days
  • Water Temperature
  • Satellite Maps
  • Weather Map
  • Weather Widgets
  • user-avatar
    Login

    Hourly Weather Townsville

    Today, 20 November, Monday

    Time Temperature Precipitation Wind Pressure Humidity
    00:00 +25°C° 0.1 mm 5 mps 752 mmHg 84%
    01:00 +25°C° 0.1 mm 5 mps 752 mmHg 85%
    02:00 +25°C° 0.1 mm 4 mps 752 mmHg 86%
    03:00 +25°C° 0.1 mm 4 mps 752 mmHg 87%
    04:00 +25°C° 0 mm 4 mps 752 mmHg 88%
    05:00 +25°C° 0.1 mm 4 mps 752 mmHg 86%
    06:00 +26°C° 0.1 mm 4 mps 752 mmHg 83%
    07:00 +26°C° 0.1 mm 4 mps 753 mmHg 80%
    08:00 +28°C° 0.3 mm 4 mps 753 mmHg 74%
    09:00 +29°C° 0.3 mm 4 mps 753 mmHg 67%
    10:00 +30°C° 0 mm 4 mps 753 mmHg 63%
    11:00 +32°C° 0.3 mm 4 mps 752 mmHg 61%
    12:00 +32°C° 0.3 mm 4 mps 752 mmHg 59%
    13:00 +33°C° 0.3 mm 4 mps 752 mmHg 58%
    14:00 +32°C° 0.4 mm 5 mps 751 mmHg 60%
    15:00 +30°C° 0.4 mm 5 mps 751 mmHg 63%
    16:00 +30°C° 0 mm 5 mps 751 mmHg 66%
    17:00 +28°C° 0.1 mm 5 mps 751 mmHg 71%
    18:00 +27°C° 0.1 mm 5 mps 752 mmHg 76%
    19:00 +26°C° 0.1 mm 6 mps 752 mmHg 81%
    20:00 +26°C° 0.3 mm 6 mps 752 mmHg 82%
    21:00 +24°C° 0.3 mm 6 mps 752 mmHg 83%
    22:00 +24°C° 0.3 mm 6 mps 753 mmHg 83%
    23:00 +24°C° 0.4 mm 6 mps 753 mmHg 84%

    Tomorrow, 21 November, Tuesday

    Time Temperature Precipitation Wind Pressure Humidity
    00:00 +24°C° 0.4 mm 6 mps 753 mmHg 85%
    01:00 +25°C° 0.4 mm 5 mps 752 mmHg 86%
    02:00 +23°C° 0.4 mm 5 mps 752 mmHg 86%
    03:00 +23°C° 0.4 mm 5 mps 752 mmHg 86%
    04:00 +23°C° 0.4 mm 5 mps 752 mmHg 86%
    05:00 +23°C° 0.4 mm 5 mps 752 mmHg 85%
    06:00 +23°C° 0.4 mm 5 mps 752 mmHg 84%
    07:00 +25°C° 0.4 mm 5 mps 753 mmHg 83%
    08:00 +25°C° 0.4 mm 5 mps 753 mmHg 79%
    09:00 +26°C° 0.4 mm 5 mps 753 mmHg 74%
    10:00 +27°C° 0.4 mm 5 mps 753 mmHg 70%
    11:00 +28°C° 0.8 mm 5 mps 752 mmHg 68%
    12:00 +29°C° 0.8 mm 6 mps 752 mmHg 65%
    13:00 +29°C° 0.8 mm 6 mps 751 mmHg 63%
    14:00 +29°C° 0.6 mm 6 mps 751 mmHg 65%
    15:00 +28°C° 0.6 mm 6 mps 750 mmHg 66%
    16:00 +28°C° 0.6 mm 6 mps 750 mmHg 68%
    17:00 +27°C° 0.7 mm 6 mps 750 mmHg 73%
    18:00 +26°C° 0.7 mm 5 mps 750 mmHg 78%
    19:00 +23°C° 0.7 mm 5 mps 750 mmHg 83%
    20:00 +23°C° 0.4 mm 5 mps 751 mmHg 84%
    21:00 +23°C° 0.4 mm 5 mps 751 mmHg 84%
    22:00 +23°C° 0.4 mm 6 mps 752 mmHg 84%
    23:00 +23°C° 0.5 mm 5 mps 751 mmHg 84%

    Day after tomorrow, 22 November, Wednesday

    Time Temperature Precipitation Wind Pressure Humidity
    00:00 +23°C° 0.5 mm 5 mps 751 mmHg 85%
    01:00 +23°C° 0.5 mm 5 mps 750 mmHg 85%
    02:00 +23°C° 0.6 mm 5 mps 750 mmHg 86%
    03:00 +23°C° 0.6 mm 4 mps 750 mmHg 86%
    04:00 +23°C° 0.6 mm 4 mps 750 mmHg 87%
    05:00 +23°C° 1 mm 4 mps 750 mmHg 85%
    06:00 +23°C° 1 mm 4 mps 751 mmHg 84%
    07:00 +25°C° 1 mm 4 mps 751 mmHg 82%
    08:00 +26°C° 0.8 mm 4 mps 751 mmHg 77%
    09:00 +27°C° 0.8 mm 5 mps 751 mmHg 72%
    10:00 +28°C° 0.8 mm 5 mps 751 mmHg 66%
    11:00 +29°C° 0.5 mm 5 mps 751 mmHg 64%
    12:00 +29°C° 0.5 mm 6 mps 750 mmHg 61%
    13:00 +30°C° 0.5 mm 6 mps 750 mmHg 58%
    14:00 +29°C° 0.7 mm 6 mps 749 mmHg 61%
    15:00 +29°C° 0.7 mm 6 mps 749 mmHg 64%
    16:00 +28°C° 0.7 mm 6 mps 749 mmHg 66%
    17:00 +27°C° 0.1 mm 5 mps 749 mmHg 72%
    18:00 +26°C° 0.1 mm 5 mps 750 mmHg 77%
    19:00 +25°C° 0.1 mm 5 mps 750 mmHg 82%
    20:00 +25°C° 0.3 mm 5 mps 750 mmHg 84%
    21:00 +25°C° 0.3 mm 5 mps 751 mmHg 86%
    22:00 +23°C° 0.3 mm 5 mps 751 mmHg 87%
    23:00 +23°C° 0.5 mm 5 mps 751 mmHg 88%

    23 November, Thursday

    Time Temperature Precipitation Wind Pressure Humidity
    00:00 +23°C° 0.5 mm 5 mps 750 mmHg 89%
    01:00 +23°C° 0.5 mm 4 mps 750 mmHg 90%
    02:00 +23°C° 0.5 mm 4 mps 750 mmHg 90%
    03:00 +22°C° 0.5 mm 3 mps 750 mmHg 91%
    04:00 +22°C° 0.5 mm 3 mps 750 mmHg 91%
    05:00 +24°C° 0.5 mm 3 mps 750 mmHg 89%
    06:00 +23°C° 0.5 mm 4 mps 751 mmHg 86%
    07:00 +25°C° 0.5 mm 4 mps 751 mmHg 84%
    08:00 +26°C° 0.6 mm 4 mps 751 mmHg 77%
    09:00 +27°C° 0.6 mm 4 mps 752 mmHg 71%
    10:00 +29°C° 0.6 mm 4 mps 752 mmHg 65%
    11:00 +29°C° 0.9 mm 4 mps 751 mmHg 64%
    12:00 +30°C° 0.9 mm 4 mps 751 mmHg 63%
    13:00 +30°C° 0.9 mm 5 mps 750 mmHg 62%
    14:00 +30°C° 0.7 mm 5 mps 750 mmHg 63%
    15:00 +30°C° 0.7 mm 4 mps 750 mmHg 65%
    16:00 +29°C° 0.7 mm 4 mps 749 mmHg 66%
    17:00 +28°C° 0.4 mm 4 mps 750 mmHg 71%
    18:00 +27°C° 0.4 mm 4 mps 750 mmHg 77%
    19:00 +26°C° 0.4 mm 4 mps 751 mmHg 82%
    20:00 +25°C° 0.1 mm 4 mps 751 mmHg 84%
    21:00 +25°C° 0.1 mm 4 mps 752 mmHg 87%
    22:00 +25°C° 0.1 mm 4 mps 752 mmHg 89%
    23:00 +25°C° 0.1 mm 4 mps 752 mmHg 90%

    24 November, Friday

    Time Temperature Precipitation Wind Pressure Humidity
    00:00 +25°C° 0.1 mm 4 mps 751 mmHg 91%
    01:00 +24°C° 0.1 mm 3 mps 751 mmHg 93%
    02:00 +24°C° 0.2 mm 3 mps 751 mmHg 93%
    03:00 +24°C° 0.2 mm 3 mps 751 mmHg 93%
    04:00 +24°C° 0.2 mm 3 mps 750 mmHg 94%
    05:00 +25°C° 0.1 mm 3 mps 751 mmHg 91%
    06:00 +25°C° 0.1 mm 4 mps 752 mmHg 89%
    07:00 +26°C° 0.1 mm 4 mps 752 mmHg 86%
    08:00 +27°C° 0.2 mm 4 mps 752 mmHg 77%
    09:00 +29°C° 0.2 mm 4 mps 752 mmHg 69%
    10:00 +32°C° 0.2 mm 4 mps 753 mmHg 60%
    11:00 +33°C° 0 mm 4 mps 752 mmHg 56%
    12:00 +34°C° 0 mm 4 mps 751 mmHg 53%
    13:00 +34°C° 0 mm 4 mps 751 mmHg 49%
    14:00 +34°C° 0.2 mm 4 mps 751 mmHg 53%
    15:00 +33°C° 0.2 mm 5 mps 750 mmHg 57%
    16:00 +32°C° 0.2 mm 5 mps 750 mmHg 60%
    17:00 +30°C° 0 mm 4 mps 750 mmHg 67%
    18:00 +28°C° 0 mm 4 mps 751 mmHg 73%
    19:00 +27°C° 0 mm 3 mps 752 mmHg 79%
    20:00 +26°C° 0 mm 3 mps 752 mmHg 82%
    21:00 +26°C° 0 mm 3 mps 752 mmHg 85%
    22:00 +26°C° 0 mm 3 mps 753 mmHg 88%
    23:00 +26°C° 0 mm 3 mps 752 mmHg 89%

    25 November, Saturday

    Time Temperature Precipitation Wind Pressure Humidity
    00:00 +25°C° 0 mm 3 mps 752 mmHg 90%
    01:00 +25°C° 0 mm 3 mps 752 mmHg 91%
    02:00 +25°C° 0 mm 3 mps 751 mmHg 92%
    03:00 +25°C° 0 mm 3 mps 751 mmHg 93%
    04:00 +25°C° 0 mm 3 mps 751 mmHg 94%
    05:00 +25°C° 0 mm 3 mps 752 mmHg 90%
    06:00 +26°C° 0 mm 3 mps 752 mmHg 87%
    07:00 +27°C° 0 mm 3 mps 753 mmHg 83%
    08:00 +29°C° 0 mm 3 mps 753 mmHg 74%
    09:00 +30°C° 0 mm 3 mps 753 mmHg 64%
    10:00 +33°C° 0 mm 3 mps 753 mmHg 55%
    11:00 +34°C° 0 mm 4 mps 752 mmHg 52%
    12:00 +35°C° 0 mm 4 mps 751 mmHg 49%
    13:00 +35°C° 0 mm 4 mps 751 mmHg 47%
    14:00 +35°C° 0 mm 4 mps 751 mmHg 49%
    15:00 +34°C° 0 mm 5 mps 751 mmHg 52%
    16:00 +33°C° 0 mm 5 mps 750 mmHg 54%
    17:00 +32°C° 0 mm 4 mps 751 mmHg 62%
    18:00 +29°C° 0 mm 4 mps 751 mmHg 69%
    19:00 +27°C° 0 mm 4 mps 752 mmHg 77%
    20:00 +27°C° 0 mm 4 mps 752 mmHg 80%
    21:00 +27°C° 0 mm 4 mps 752 mmHg 84%
    22:00 +26°C° 0 mm 4 mps 753 mmHg 88%
    23:00 +26°C° 0 mm 3 mps 752 mmHg 89%
    Show more